Regional Weather Roundup
Issued by NWS Cleveland, OH

Home | Current Version | Previous Version | Text Only | Print | Product List | Glossary Off
Versions: 1 2 3 4 5 6 7 8 9 10 11 12 13 14 15 16 17 18 19 20 21 22 23 24 25 26 27 28 29 30 31 32 33 34 35 36 37 38 39 40 41 42 43 44 45 46 47 48 49 50

000
ASUS41 KCLE 052010
RWRCLE
OHIO REGIONAL WEATHER ROUNDUP
NATIONAL WEATHER SERVICE CLEVELAND, OH
400 PM EDT TUE MAY 05 2015

NOTE: "FAIR" INDICATES FEW OR NO CLOUDS BELOW 12,000 FEET WITH NO
SIGNIFICANT WEATHER AND/OR OBSTRUCTIONS TO VISIBILITY.

OHZ001>008-015>018-024>027-034-035-043-044-052100-
   NORTHWEST OHIO

CITY           SKY/WX    TMP DP  RH WIND       PRES   REMARKS
DEFIANCE       CLOUDY    63  58  83 NE9       30.23F HAZE
FINDLAY        MOSUNNY   70  62  76 NE13      30.20F THUNDER
TOLEDO EXPRESS CLOUDY    56  52  86 E12       30.26S
TOLEDO EXEC    LGT RAIN  52  47  83 NE9       30.28F
LIMA           PTSUNNY   78  58  49 SW13      30.21S
$$

OHZ009>014-019>023-028>033-038-089-052100-
   NORTHEAST OHIO

CITY           SKY/WX    TMP DP  RH WIND       PRES   REMARKS
CLE-HOPKINS    FOG       50  48  93 N12       30.30R VSB 1
CLE-LAKEFRONT  CLOUDY    49  47  93 N10       30.28R FOG
CUY CO. ARPT   CLOUDY    59  57  94 NW7       30.26R FOG
LORAIN-ELYRIA  CLOUDY    51  49  92 N8        30.28R FOG
ASHTABULA      LGT RAIN  66  62  87 W5        30.25S FOG
AKRON-CANTON   CLOUDY    74  58  57 VRB7      30.24F
WOOSTER        PTSUNNY   75  60  59 VRB7      30.24F
MANSFIELD      PTSUNNY   76  60  57 VRB5      30.23F
YOUNGSTOWN     CLOUDY    71  59  65 SW6       30.24F
$$

OHZ042-051>053-060>062-070>072-077>081-052100-
  SOUTHWEST OHIO

CITY           SKY/WX    TMP DP  RH WIND       PRES   REMARKS
CINC-COVINGTON MOSUNNY   80  52  37 SW8G16    30.22F
CINC-LUNKEN    PTSUNNY   80  56  43 W6        30.21F
HAMILTON       MOSUNNY   85  52  32 W6        30.21F
DAYTON         PTSUNNY   81  54  39 W14       30.22F
WRIGHT-PAT AFB MOSUNNY   81  56  41 SW12      30.21F
DAYTON GENERAL PTSUNNY   81  52  36 SW9       30.21F
WILMINGTON     MOSUNNY   81  53  37 S14       30.22F
$$

OHZ036-037-039>041-045>050-054>059-063>069-073>076-082>088-052100-
  CENTRAL AND SOUTHEAST OHIO

CITY           SKY/WX    TMP DP  RH WIND       PRES   REMARKS
COLUMBUS       PTSUNNY   79  56  45 CALM      30.21F
OSU AIRPORT    MOSUNNY   81  54  39 SW10      30.21F
BOLTON FIELD   PTSUNNY   79  55  44 W8        30.22F
RICKENBACK AFB PTSUNNY   81  56  43 SW8       30.21F
NEWARK         MOSUNNY   79  57  46 SW3       30.21F
MARION         PTSUNNY   78  58  49 W8        30.22F
LANCASTER      MOSUNNY   80  57  45 W7G18     30.22F
ZANESVILLE     MOSUNNY   79  56  45 NW9       30.22F
NEW PHILLY     PTSUNNY   78  60  53 SW5       30.24F
$$



USA.gov is the U.S. government's official web portal to all federal, state and local government web resources and services.